TimePST,TemperatureF,Dew PointF,Humidity,Sea Level PressureIn,VisibilityMPH,Wind Direction,Wind SpeedMPH,Gust SpeedMPH,PrecipitationIn,Events,Conditions,WindDirDegrees,DateUTC
12:53 AM,54.0,45.0,72,30.09,10.0,West,4.6,-,N/A,,Clear,260,2012-12-05 08:53:00
1:53 AM,53.1,45.0,74,30.09,10.0,West,5.8,-,N/A,,Clear,270,2012-12-05 09:53:00
2:53 AM,52.0,45.0,77,30.07,10.0,West,3.5,-,N/A,,Clear,280,2012-12-05 10:53:00
3:53 AM,53.1,45.0,74,30.06,10.0,WSW,5.8,-,N/A,,Clear,250,2012-12-05 11:53:00
4:53 AM,54.0,45.0,72,30.05,10.0,Calm,Calm,-,N/A,,Clear,0,2012-12-05 12:53:00
6:53 AM,51.1,43.0,74,30.08,10.0,WSW,6.9,-,N/A,,Clear,250,2012-12-05 14:53:00
7:53 AM,57.9,48.0,70,30.07,10.0,West,3.5,-,N/A,,Clear,280,2012-12-05 15:53:00
8:53 AM,64.9,50.0,58,30.08,10.0,WNW,3.5,-,N/A,,Clear,290,2012-12-05 16:53:00
9:53 AM,71.1,52.0,51,30.07,10.0,NNW,5.8,-,N/A,,Clear,330,2012-12-05 17:53:00
10:53 AM,73.9,55.0,52,30.04,10.0,NNE,4.6,-,N/A,,Clear,20,2012-12-05 18:53:00
11:53 AM,75.9,52.0,43,30.00,10.0,Calm,Calm,-,N/A,,Clear,0,2012-12-05 19:53:00
12:53 PM,80.1,50.0,35,29.97,10.0,Calm,Calm,-,N/A,,Clear,0,2012-12-05 20:53:00
1:53 PM,79.0,48.0,34,29.94,10.0,NNE,4.6,-,N/A,,Clear,20,2012-12-05 21:53:00
2:53 PM,79.0,48.9,35,29.93,10.0,WNW,3.5,-,N/A,,Clear,290,2012-12-05 22:53:00
3:53 PM,77.0,48.9,37,29.92,10.0,NNW,3.5,-,N/A,,Clear,330,2012-12-05 23:53:00
4:53 PM,73.0,48.9,42,29.91,10.0,NNW,3.5,-,N/A,,Clear,340,2012-12-06 00:53:00
5:53 PM,66.0,48.9,54,29.92,10.0,Calm,Calm,-,N/A,,Clear,0,2012-12-06 01:53:00
6:53 PM,62.1,48.0,60,29.92,10.0,WNW,3.5,-,N/A,,Clear,290,2012-12-06 02:53:00
7:53 PM,62.1,48.0,60,29.93,10.0,Calm,Calm,-,N/A,,Clear,0,2012-12-06 03:53:00
8:53 PM,57.9,46.0,65,29.92,10.0,Calm,Calm,-,N/A,,Clear,0,2012-12-06 04:53:00
9:53 PM,60.1,46.9,62,29.91,10.0,Calm,Calm,-,N/A,,Clear,0,2012-12-06 05:53:00
10:53 PM,55.9,46.9,72,29.91,10.0,SW,3.5,-,N/A,,Clear,230,2012-12-06 06:53:00
11:53 PM,57.9,48.0,70,29.90,10.0,Calm,Calm,-,N/A,,Clear,0,2012-12-06 07:53:00